Weather History for Page, AZ

Change the Weather History Date:

Tuesday, June 11, 2013

  Actual Average Record
Temperature  
Mean Temperature 84 °F -  
Max Temperature 98 °F 89 °F 100 °F (1981)
Min Temperature 71 °F 60 °F 49 °F (1969)
Cooling Degree Days 20    
Growing Degree Days 34 (Base 50)    
Moisture  
Dew Point 21 °F    
Average Humidity 9    
Maximum Humidity 18    
Minimum Humidity 4    
Precipitation  
Precipitation 0.00 in - - ()
Sea Level Pressure  
Sea Level Pressure 29.76 in    
Wind  
Wind Speed 6 mph (WSW)    
Max Wind Speed 16 mph    
Max Gust Speed 34 mph    
Visibility 10 miles    
Events      
Averages and records for this station are not official NWS values.
T = Trace of Precipitation, MM = Missing Value Source: NWS Daily Summary

Daily Weather History Graph

Daily Weather History Graph

Search for Another Location

Airport:

Trip Planner

Search our weather history database for the weather conditions in past years. The results will help you decide how hot, cold, wet, or windy it might be!

Date:

Astronomy

Jun. 11, 2013 Rise Set
Actual Time 5:05 AM MST 7:45 PM MST
Civil Twilight 4:35 AM MST 8:16 PM MST
Nautical Twilight 3:57 AM MST 8:54 PM MST
Astronomical Twilight 3:14 AM MST 9:37 PM MST
Moon 7:49 AM MST (6/11) 9:54 PM MST (6/11)
Length of Visible Light 15h 40m
Length of Day
14h 39m
Waxing Crescent, 9% of the Moon is Illuminated
Jun 11
Waxing Crescent
Jun 16
First Quarter
Jun 23
Full
Jun 29
Last Quarter
Jul 8
New

Hourly Weather History & Observations

Time (MST) Temp. Dew Point Humidity Pressure Visibility Wind Dir Wind Speed Gust Speed Precip Events Conditions
12:53 AM 81.0 °F 14.0 °F 8% 29.70 in 10.0 mi SSW 6.9 mph - N/A   Clear
1:53 AM 79.0 °F 15.1 °F 9% 29.70 in 10.0 mi South 8.1 mph - N/A   Clear
2:53 AM 75.9 °F 18.0 °F 11% 29.71 in 10.0 mi South 5.8 mph - N/A   Clear
3:53 AM 75.9 °F 24.1 °F 15% 29.72 in 10.0 mi South 4.6 mph - N/A   Clear
4:53 AM 73.0 °F 25.0 °F 17% 29.75 in 10.0 mi SSE 3.5 mph - N/A   Clear
5:53 AM 75.0 °F 28.9 °F 18% 29.77 in 10.0 mi Calm Calm - N/A   Clear
6:53 AM 78.1 °F 30.9 °F 18% 29.79 in 10.0 mi Calm Calm - N/A   Clear
7:53 AM 80.1 °F 28.9 °F 15% 29.81 in 10.0 mi ENE 9.2 mph - N/A   Clear
8:53 AM 82.0 °F 25.0 °F 12% 29.82 in 10.0 mi NNW 9.2 mph - N/A   Clear
9:53 AM 84.9 °F 23.0 °F 10% 29.81 in 10.0 mi NNW 6.9 mph - N/A   Clear
10:53 AM 87.1 °F 23.0 °F 10% 29.82 in 10.0 mi Variable 4.6 mph - N/A   Clear
11:53 AM 89.1 °F 19.9 °F 8% 29.81 in 10.0 mi Calm Calm - N/A   Clear
12:53 PM 91.9 °F 17.1 °F 6% 29.79 in 10.0 mi Variable 3.5 mph - N/A   Clear
1:53 PM 95.0 °F 17.1 °F 6% 29.75 in 7.0 mi NW 16.1 mph 31.1 mph N/A   Clear
2:53 PM 96.1 °F 19.0 °F 6% 29.76 in 10.0 mi WNW 9.2 mph 16.1 mph N/A   Clear
3:53 PM 96.1 °F 17.1 °F 6% 29.75 in 10.0 mi West 8.1 mph 34.5 mph N/A   Clear
4:53 PM 98.1 °F 17.1 °F 5% 29.72 in 10.0 mi West 8.1 mph - N/A   Clear
5:53 PM 96.1 °F 18.0 °F 6% 29.71 in 10.0 mi Variable 4.6 mph - N/A   Clear
6:53 PM 93.0 °F 19.0 °F 7% 29.73 in 10.0 mi WNW 5.8 mph - N/A   Clear
7:53 PM 91.0 °F 21.9 °F 8% 29.74 in 10.0 mi Calm Calm - N/A   Clear
8:53 PM 90.0 °F 18.0 °F 7% 29.75 in 10.0 mi WSW 4.6 mph - N/A   Clear
9:53 PM 89.1 °F 19.9 °F 8% 29.78 in 10.0 mi West 5.8 mph - N/A   Clear
10:53 PM 88.0 °F 19.0 °F 8% 29.78 in 10.0 mi WSW 5.8 mph - N/A   Clear
11:53 PM 86.0 °F 21.9 °F 10% 29.79 in 10.0 mi West 5.8 mph - N/A   Clear